| time (UTC) | temp C | wind direction | speed KPH | gust KPH | rain 1hr cm | rain 24hr cm | rain mn cm | humidity % | barometer mb |
| 20260507000032 | 7 | 60 | 3.2 | 8.0 | 0.00 | 0.00 | 0.00 | 66 | 1014.1 |
| 20260506234530 | 7 | 52 | 3.2 | 9.7 | 0.00 | 0.00 | 0.00 | 66 | 1014.2 |
| 20260506233032 | 7 | 53 | 4.8 | 9.7 | 0.00 | 0.00 | 0.00 | 67 | 1014.1 |
| 20260506230031 | 7 | 64 | 4.8 | 11.3 | 0.00 | 0.00 | 0.00 | 68 | 1014.0 |
| 20260506224528 | 7 | 58 | 3.2 | 11.3 | 0.00 | 0.00 | 0.00 | 67 | 1013.9 |
| 20260506223028 | 8 | 62 | 4.8 | 11.3 | 0.00 | 0.00 | 0.00 | 67 | 1013.9 |
| 20260506221530 | 8 | 47 | 4.8 | 8.0 | 0.00 | 0.00 | 0.00 | 68 | 1014.0 |
| 20260506220029 | 8 | 46 | 4.8 | 11.3 | 0.00 | 0.00 | 0.00 | 68 | 1013.8 |
| 20260506214531 | 8 | 42 | 3.2 | 12.9 | 0.00 | 0.00 | 0.00 | 70 | 1013.7 |
| 20260506213030 | 8 | 58 | 4.8 | 12.9 | 0.00 | 0.00 | 0.00 | 71 | 1013.6 |
| 20260506211528 | 8 | 41 | 3.2 | 9.7 | 0.00 | 0.00 | 0.00 | 72 | 1013.4 |
| 20260506210036 | 8 | 55 | 3.2 | 8.0 | 0.00 | 0.00 | 0.00 | 73 | 1013.4 |
| 20260506204528 | 8 | 53 | 3.2 | 9.7 | 0.00 | 0.00 | 0.00 | 72 | 1013.5 |
| 20260506203037 | 8 | 53 | 1.6 | 8.0 | 0.00 | 0.00 | 0.00 | 72 | 1013.3 |
| 20260506201531 | 8 | 49 | 3.2 | 12.9 | 0.00 | 0.00 | 0.00 | 71 | 1013.1 |
| 20260506200032 | 8 | 39 | 3.2 | 12.9 | 0.00 | 0.00 | 0.00 | 71 | 1013.0 |
| 20260506194530 | 8 | 35 | 3.2 | 12.9 | 0.00 | 0.00 | 0.00 | 72 | 1012.8 |
| 20260506193029 | 8 | 52 | 3.2 | 9.7 | 0.00 | 0.00 | 0.00 | 72 | 1012.9 |
| 20260506191529 | 9 | 58 | 1.6 | 11.3 | 0.00 | 0.00 | 0.00 | 72 | 1012.7 |
| 20260506190031 | 9 | 45 | 3.2 | 9.7 | 0.00 | 0.00 | 0.00 | 71 | 1012.7 |
| 20260506184530 | 9 | 27 | 4.8 | 14.5 | 0.00 | 0.00 | 0.00 | 69 | 1012.5 |
| 20260506183030 | 10 | 43 | 4.8 | 12.9 | 0.00 | 0.00 | 0.00 | 67 | 1012.5 |
| 20260506181534 | 10 | 12 | 6.4 | 14.5 | 0.00 | 0.00 | 0.00 | 64 | 1012.4 |
| 20260506180038 | 10 | 17 | 6.4 | 16.1 | 0.00 | 0.00 | 0.00 | 63 | 1012.2 |
| 20260506174529 | 10 | 15 | 6.4 | 17.7 | 0.00 | 0.00 | 0.00 | 63 | 1012.2 |
| 20260506173028 | 10 | 336 | 4.8 | 14.5 | 0.00 | 0.00 | 0.00 | 62 | 1012.2 |
| 20260506171544 | 11 | 24 | 4.8 | 12.9 | 0.00 | 0.00 | 0.00 | 60 | 1012.1 |
| 20260506170027 | 12 | 13 | 6.4 | 17.7 | 0.00 | 0.00 | 0.00 | 57 | 1012.1 |
| 20260506164528 | 12 | 66 | 6.4 | 17.7 | 0.00 | 0.00 | 0.00 | 57 | 1012.1 |
| 20260506163031 | 12 | 283 | 4.8 | 16.1 | 0.00 | 0.00 | 0.00 | 58 | 1011.9 |
| 20260506161539 | 12 | 64 | 3.2 | 17.7 | 0.00 | 0.00 | 0.00 | 59 | 1011.9 |
| 20260506160031 | 13 | 323 | 4.8 | 16.1 | 0.00 | 0.00 | 0.00 | 57 | 1011.8 |
| 20260506154530 | 13 | 322 | 4.8 | 19.3 | 0.00 | 0.00 | 0.00 | 58 | 1011.9 |
| 20260506153027 | 13 | 292 | 6.4 | 22.5 | 0.00 | 0.00 | 0.00 | 59 | 1011.9 |
| 20260506151528 | 13 | 300 | 4.8 | 20.9 | 0.00 | 0.00 | 0.00 | 57 | 1011.9 |
| 20260506150030 | 13 | 287 | 8.0 | 19.3 | 0.00 | 0.00 | 0.00 | 57 | 1011.6 |
| 20260506144529 | 13 | 31 | 4.8 | 22.5 | 0.00 | 0.00 | 0.00 | 58 | 1011.7 |
| 20260506143030 | 13 | 94 | 6.4 | 19.3 | 0.00 | 0.00 | 0.00 | 58 | 1011.8 |
| 20260506141530 | 13 | 286 | 4.8 | 19.3 | 0.00 | 0.00 | 0.00 | 59 | 1011.7 |
| 20260506140030 | 14 | 7 | 6.4 | 25.7 | 0.00 | 0.00 | 0.00 | 57 | 1011.6 |
| 20260506134603 | 15 | 292 | 6.4 | 17.7 | 0.00 | 0.00 | 0.00 | 57 | 1011.6 |
| 20260506133030 | 15 | 350 | 4.8 | 14.5 | 0.00 | 0.00 | 0.00 | 57 | 1011.6 |
| 20260506131532 | 15 | 29 | 3.2 | 9.7 | 0.00 | 0.00 | 0.00 | 56 | 1011.7 |
| 20260506130028 | 15 | 341 | 4.8 | 12.9 | 0.00 | 0.00 | 0.00 | 53 | 1011.8 |
| 20260506124530 | 14 | 74 | 3.2 | 14.5 | 0.00 | 0.00 | 0.00 | 54 | 1011.8 |
| 20260506123030 | 15 | 42 | 1.6 | 9.7 | 0.00 | 0.00 | 0.00 | 54 | 1011.9 |
| 20260506121529 | 14 | 114 | 6.4 | 12.9 | 0.00 | 0.00 | 0.00 | 54 | 1011.8 |
| 20260506120028 | 14 | 354 | 4.8 | 11.3 | 0.00 | 0.00 | 0.00 | 53 | 1011.8 |
| 20260506114534 | 13 | 43 | 4.8 | 12.9 | 0.00 | 0.00 | 0.00 | 54 | 1011.8 |
| 20260506113034 | 13 | 63 | 3.2 | 6.4 | 0.00 | 0.00 | 0.00 | 56 | 1011.9 |
| 20260506111530 | 13 | 295 | 3.2 | 9.7 | 0.00 | 0.00 | 0.00 | 55 | 1011.8 |
| 20260506110030 | 13 | 30 | 3.2 | 12.9 | 0.00 | 0.00 | 0.00 | 55 | 1012.0 |
| 20260506104526 | 13 | 0 | 3.2 | 12.9 | 0.00 | 0.00 | 0.00 | 55 | 1012.0 |
| 20260506103032 | 13 | 0 | 1.6 | 9.7 | 0.00 | 0.00 | 0.00 | 55 | 1012.2 |
| 20260506101530 | 13 | 75 | 1.6 | 8.0 | 0.00 | 0.00 | 0.00 | 58 | 1012.3 |
| 20260506100033 | 12 | 18 | 3.2 | 12.9 | 0.00 | 0.00 | 0.00 | 62 | 1012.4 |
| 20260506094528 | 12 | 63 | 0.0 | 9.7 | 0.00 | 0.00 | 0.00 | 62 | 1012.4 |
| 20260506093029 | 11 | 105 | 3.2 | 8.0 | 0.00 | 0.00 | 0.00 | 62 | 1012.5 |
| 20260506091530 | 11 | 131 | 0.0 | 16.1 | 0.00 | 0.00 | 0.00 | 64 | 1012.6 |
| 20260506090028 | 11 | 64 | 4.8 | 12.9 | 0.00 | 0.00 | 0.00 | 63 | 1012.6 |
| 20260506084530 | 11 | 62 | 1.6 | 9.7 | 0.00 | 0.00 | 0.00 | 64 | 1012.5 |
| 20260506083031 | 11 | 98 | 1.6 | 12.9 | 0.00 | 0.00 | 0.00 | 64 | 1012.6 |
| 20260506081532 | 10 | 62 | 4.8 | 11.3 | 0.00 | 0.00 | 0.00 | 64 | 1012.4 |
| 20260506073033 | 10 | 68 | 6.4 | 11.3 | 0.00 | 0.00 | 0.00 | 67 | 1012.4 |
| 20260506071534 | 9 | 46 | 3.2 | 12.9 | 0.00 | 0.00 | 0.00 | 71 | 1012.2 |
| 20260506061537 | 6 | 49 | 3.2 | 9.7 | 0.00 | 0.00 | 0.00 | 83 | 1012.2 |
| 20260506044530 | 3 | 51 | 3.2 | 8.0 | 0.00 | 0.00 | 0.00 | 89 | 1012.2 |
| 20260506043030 | 2 | 45 | 3.2 | 8.0 | 0.00 | 0.00 | 0.00 | 89 | 1012.2 |
| 20260506041537 | 2 | 50 | 4.8 | 8.0 | 0.00 | 0.00 | 0.00 | 89 | 1012.2 |
| 20260506040031 | 2 | 25 | 3.2 | 6.4 | 0.00 | 0.00 | 0.00 | 89 | 1012.3 |
| 20260506034530 | 2 | 58 | 1.6 | 6.4 | 0.00 | 0.00 | 0.00 | 89 | 1012.4 |
| 20260506033028 | 2 | 50 | 3.2 | 8.0 | 0.00 | 0.00 | 0.00 | 89 | 1012.5 |
| 20260506031537 | 2 | 46 | 1.6 | 4.8 | 0.00 | 0.00 | 0.00 | 88 | 1012.6 |
| 20260506030027 | 2 | 55 | 1.6 | 4.8 | 0.00 | 0.00 | 0.00 | 88 | 1012.8 |
| 20260506024539 | 3 | 49 | 3.2 | 8.0 | 0.00 | 0.00 | 0.00 | 88 | 1013.0 |
| 20260506023032 | 3 | 57 | 1.6 | 6.4 | 0.00 | 0.00 | 0.00 | 88 | 1013.0 |
| 20260506021531 | 3 | 59 | 1.6 | 8.0 | 0.00 | 0.00 | 0.00 | 88 | 1013.0 |
| 20260506020028 | 3 | 60 | 1.6 | 4.8 | 0.00 | 0.00 | 0.00 | 87 | 1013.0 |
| 20260506014530 | 3 | 58 | 3.2 | 9.7 | 0.00 | 0.00 | 0.00 | 87 | 1013.0 |
| 20260506013031 | 3 | 52 | 3.2 | 8.0 | 0.00 | 0.00 | 0.00 | 87 | 1012.8 |
| 20260506011557 | 3 | 45 | 3.2 | 11.3 | 0.00 | 0.00 | 0.00 | 87 | 1012.9 |
| 20260506010031 | 3 | 47 | 3.2 | 9.7 | 0.00 | 0.00 | 0.00 | 86 | 1012.6 |
| 20260506004532 | 3 | 53 | 4.8 | 11.3 | 0.00 | 0.00 | 0.00 | 85 | 1012.5 |
| 20260506003030 | 4 | 49 | 3.2 | 9.7 | 0.00 | 0.00 | 0.00 | 85 | 1012.6 |
| 20260506001528 | 4 | 44 | 3.2 | 8.0 | 0.00 | 0.00 | 0.00 | 86 | 1012.6 |